Zurück zum Katalog

STARLINK-3569

AktivKommunikationVLEO
NORAD 51811·PAYLOAD·🇺🇸 United States

Gestartet Feb 25, 2022 von Vandenberg Space Force Base

Loading…

Nächste Überflüge (nächste 24 Stunden)

TLE

AktuellSource: CelesTrak SupGP

Epoche: Sep 15, 2026, 01:59 UTC

1 51811C 22017AV  26258.08312500 -.00015312  00000+0 -45250-3 0  2580
2 51811  53.1581 195.1512 0001408  82.2070 216.3143 15.34390466    19

Verfolge STARLINK-3569 in Echtzeit mit AllMySat

Download on the App Store